Time,TemperatureF,DewpointF,PressureIn,WindDirection,WindDirectionDegrees,WindSpeedMPH,WindSpeedGustMPH,Humidity,HourlyPrecipIn,Conditions,Clouds,dailyrainin,SoftwareType,DateUTC
2013-05-22 00:06:00,68.1,66.0,29.86,NW,326,0.0,1.0,93,0.00,,,0.00,weatherlink.com 1.10,2013-05-22 04:06:00,
2013-05-22 00:21:00,68.0,66.0,29.88,NW,326,0.0,1.0,93,0.00,,,0.00,weatherlink.com 1.10,2013-05-22 04:21:00,
2013-05-22 00:36:00,67.7,66.0,29.87,NW,325,0.0,1.0,93,0.00,,,0.00,weatherlink.com 1.10,2013-05-22 04:36:00,
2013-05-22 00:51:00,67.5,66.0,29.88,NW,324,0.0,2.0,93,0.00,,,0.00,weatherlink.com 1.10,2013-05-22 04:51:00,
2013-05-22 01:06:00,67.3,66.0,29.88,NW,321,0.0,2.0,94,0.00,,,0.00,weatherlink.com 1.10,2013-05-22 05:06:00,
2013-05-22 01:21:00,67.2,66.0,29.88,NW,321,0.0,0.0,94,0.00,,,0.00,weatherlink.com 1.10,2013-05-22 05:21:00,
2013-05-22 01:36:00,67.0,65.0,29.89,SW,227,0.0,3.0,94,0.00,,,0.00,weatherlink.com 1.10,2013-05-22 05:36:00,
2013-05-22 01:51:00,67.0,65.0,29.89,SW,227,0.0,1.0,94,0.00,,,0.00,weatherlink.com 1.10,2013-05-22 05:51:00,
2013-05-22 02:06:00,67.1,65.0,29.88,SW,227,0.0,1.0,93,0.00,,,0.00,weatherlink.com 1.10,2013-05-22 06:06:00,
2013-05-22 02:21:00,67.1,65.0,29.87,SW,223,0.0,1.0,93,0.00,,,0.00,weatherlink.com 1.10,2013-05-22 06:21:00,
2013-05-22 02:36:00,66.8,65.0,29.88,SW,221,0.0,4.0,92,0.00,,,0.00,weatherlink.com 1.10,2013-05-22 06:36:00,
2013-05-22 02:51:00,65.8,63.0,29.88,SW,219,0.0,2.0,89,0.00,,,0.00,weatherlink.com 1.10,2013-05-22 06:51:00,
2013-05-22 03:06:00,64.1,61.0,29.89,East,88,2.0,3.0,89,0.00,,,0.00,weatherlink.com 1.10,2013-05-22 07:06:00,
2013-05-22 03:21:00,62.9,60.0,29.90,WSW,251,0.0,4.0,89,0.00,,,0.00,weatherlink.com 1.10,2013-05-22 07:21:00,
2013-05-22 03:36:00,61.9,58.0,29.91,East,96,2.0,5.0,88,0.00,,,0.00,weatherlink.com 1.10,2013-05-22 07:36:00,
2013-05-22 03:51:00,60.2,57.0,29.89,NNW,331,0.0,6.0,89,0.00,,,0.00,weatherlink.com 1.10,2013-05-22 07:51:00,
2013-05-22 04:06:00,59.0,56.0,29.89,NNW,337,2.0,5.0,91,0.00,,,0.00,weatherlink.com 1.10,2013-05-22 08:06:00,
2013-05-22 04:21:00,58.6,57.0,29.92,SE,128,2.0,5.0,93,0.12,,,0.12,weatherlink.com 1.10,2013-05-22 08:21:00,
2013-05-22 04:36:00,58.0,57.0,29.92,SE,131,3.0,5.0,95,0.46,,,0.46,weatherlink.com 1.10,2013-05-22 08:36:00,
2013-05-22 04:51:00,57.9,57.0,29.92,NNW,329,1.0,3.0,96,0.62,,,0.62,weatherlink.com 1.10,2013-05-22 08:51:00,
2013-05-22 05:06:00,58.1,57.0,29.91,NNW,329,0.0,2.0,96,0.63,,,0.63,weatherlink.com 1.10,2013-05-22 09:06:00,
2013-05-22 05:22:00,57.9,57.0,29.91,WNW,302,1.0,3.0,96,0.51,,,0.63,weatherlink.com 1.10,2013-05-22 09:22:00,
2013-05-22 05:37:00,57.7,57.0,29.91,WNW,290,0.0,1.0,96,0.13,,,0.63,weatherlink.com 1.10,2013-05-22 09:37:00,
2013-05-22 05:52:00,57.9,57.0,29.91,WNW,290,0.0,1.0,97,0.01,,,0.63,weatherlink.com 1.10,2013-05-22 09:52:00,
2013-05-22 06:07:00,57.8,57.0,29.92,WNW,290,0.0,1.0,96,0.00,,,0.63,weatherlink.com 1.10,2013-05-22 10:07:00,
2013-05-22 06:22:00,57.8,57.0,29.92,WNW,290,0.0,1.0,97,0.00,,,0.63,weatherlink.com 1.10,2013-05-22 10:22:00,
2013-05-22 06:37:00,57.8,57.0,29.92,WNW,290,0.0,1.0,97,0.00,,,0.63,weatherlink.com 1.10,2013-05-22 10:37:00,
2013-05-22 06:52:00,57.8,57.0,29.92,WNW,290,0.0,0.0,97,0.00,,,0.63,weatherlink.com 1.10,2013-05-22 10:52:00,
2013-05-22 07:07:00,58.1,57.0,29.92,WNW,290,0.0,0.0,97,0.00,,,0.63,weatherlink.com 1.10,2013-05-22 11:07:00,
2013-05-22 07:22:00,58.3,58.0,29.92,WNW,290,0.0,0.0,97,0.00,,,0.63,weatherlink.com 1.10,2013-05-22 11:22:00,
2013-05-22 07:37:00,58.5,58.0,29.92,WNW,290,0.0,0.0,97,0.00,,,0.63,weatherlink.com 1.10,2013-05-22 11:37:00,
2013-05-22 07:52:00,58.7,58.0,29.93,WNW,290,0.0,0.0,97,0.00,,,0.63,weatherlink.com 1.10,2013-05-22 11:52:00,
2013-05-22 08:07:00,59.0,58.0,29.92,WNW,294,0.0,1.0,97,0.00,,,0.63,weatherlink.com 1.10,2013-05-22 12:07:00,
2013-05-22 08:22:00,59.2,58.0,29.92,North,11,1.0,3.0,97,0.00,,,0.63,weatherlink.com 1.10,2013-05-22 12:22:00,
2013-05-22 08:39:00,59.5,59.0,29.92,WNW,294,0.0,3.0,97,0.00,,,0.63,weatherlink.com 1.10,2013-05-22 12:39:00,
2013-05-22 08:51:00,59.7,59.0,29.92,West,279,0.0,2.0,97,0.00,,,0.63,weatherlink.com 1.10,2013-05-22 12:51:00,
2013-05-22 09:06:00,59.9,59.0,29.93,WSW,241,0.0,2.0,97,0.00,,,0.63,weatherlink.com 1.10,2013-05-22 13:06:00,
2013-05-22 09:21:00,60.0,59.0,29.92,WNW,299,0.0,3.0,97,0.00,,,0.63,weatherlink.com 1.10,2013-05-22 13:21:00,
2013-05-22 09:36:00,60.1,59.0,29.92,WNW,284,0.0,1.0,97,0.00,,,0.63,weatherlink.com 1.10,2013-05-22 13:36:00,
2013-05-22 09:51:00,60.6,60.0,29.93,West,279,0.0,2.0,97,0.00,,,0.63,weatherlink.com 1.10,2013-05-22 13:51:00,
2013-05-22 10:06:00,60.9,60.0,29.93,West,277,1.0,3.0,97,0.00,,,0.63,weatherlink.com 1.10,2013-05-22 14:06:00,
2013-05-22 10:21:00,61.2,60.0,29.92,WSW,255,0.0,3.0,96,0.00,,,0.63,weatherlink.com 1.10,2013-05-22 14:21:00,
2013-05-22 10:36:00,61.9,61.0,29.92,WSW,255,0.0,2.0,97,0.00,,,0.63,weatherlink.com 1.10,2013-05-22 14:36:00,
2013-05-22 10:51:00,62.9,62.0,29.93,WSW,255,0.0,1.0,97,0.00,,,0.63,weatherlink.com 1.10,2013-05-22 14:51:00,
2013-05-22 10:57:00,63.0,62.0,29.92,WSW,255,0.0,2.0,95,0.00,,,0.63,weatherlink.com 1.10,2013-05-22 14:57:00,
2013-05-22 11:11:00,63.6,62.0,29.92,WSW,255,1.0,1.0,95,0.00,,,0.63,weatherlink.com 1.10,2013-05-22 15:11:00,
2013-05-22 11:17:00,64.1,63.0,29.92,SW,234,0.0,5.0,95,0.00,,,0.63,weatherlink.com 1.10,2013-05-22 15:17:00,
2013-05-22 11:29:00,64.9,64.0,29.91,SW,216,1.0,3.0,95,0.00,,,0.63,weatherlink.com 1.10,2013-05-22 15:29:00,
2013-05-22 11:41:00,65.6,64.0,29.91,WSW,254,0.0,4.0,93,0.00,,,0.63,weatherlink.com 1.10,2013-05-22 15:41:00,
2013-05-22 11:53:00,66.2,64.0,29.91,SW,235,0.0,4.0,93,0.00,,,0.63,weatherlink.com 1.10,2013-05-22 15:53:00,
2013-05-22 12:08:00,67.5,65.0,29.91,WSW,251,3.0,6.0,92,0.00,,,0.63,weatherlink.com 1.10,2013-05-22 16:08:00,
2013-05-22 12:23:00,67.7,65.0,29.91,WSW,239,2.0,6.0,91,0.00,,,0.63,weatherlink.com 1.10,2013-05-22 16:23:00,
2013-05-22 12:38:00,68.5,66.0,29.90,WSW,245,0.0,4.0,90,0.00,,,0.63,weatherlink.com 1.10,2013-05-22 16:38:00,
2013-05-22 12:53:00,69.7,66.0,29.90,WSW,252,2.0,7.0,89,0.00,,,0.63,weatherlink.com 1.10,2013-05-22 16:53:00,
2013-05-22 13:08:00,70.2,66.0,29.89,WSW,250,0.0,5.0,87,0.00,,,0.63,weatherlink.com 1.10,2013-05-22 17:08:00,
2013-05-22 13:24:00,71.4,68.0,29.89,WSW,250,0.0,4.0,90,0.00,,,0.63,weatherlink.com 1.10,2013-05-22 17:24:00,
2013-05-22 13:39:00,72.3,68.0,29.88,ESE,104,1.0,4.0,86,0.00,,,0.63,weatherlink.com 1.10,2013-05-22 17:39:00,
2013-05-22 13:54:00,73.2,69.0,29.88,SSE,155,0.0,6.0,86,0.00,,,0.63,weatherlink.com 1.10,2013-05-22 17:54:00,
2013-05-22 14:09:00,73.3,68.0,29.87,West,261,0.0,8.0,84,0.00,,,0.63,weatherlink.com 1.10,2013-05-22 18:09:00,
2013-05-22 14:24:00,73.8,69.0,29.88,SW,235,4.0,9.0,86,0.00,,,0.63,weatherlink.com 1.10,2013-05-22 18:24:00,
2013-05-22 14:39:00,74.4,69.0,29.87,West,261,1.0,8.0,83,0.00,,,0.63,weatherlink.com 1.10,2013-05-22 18:39:00,
2013-05-22 14:54:00,75.1,69.0,29.86,SSW,197,2.0,5.0,81,0.00,,,0.63,weatherlink.com 1.10,2013-05-22 18:54:00,
2013-05-22 15:32:00,76.3,70.0,29.86,WSW,238,2.0,7.0,82,0.00,,,0.63,weatherlink.com 1.10,2013-05-22 19:32:00,
2013-05-22 15:47:00,76.8,71.0,29.85,West,271,0.0,5.0,82,0.00,,,0.63,weatherlink.com 1.10,2013-05-22 19:47:00,
2013-05-22 16:02:00,77.1,70.0,29.85,South,190,0.0,5.0,79,0.00,,,0.63,weatherlink.com 1.10,2013-05-22 20:02:00,
2013-05-22 16:17:00,77.4,71.0,29.85,SW,225,0.0,3.0,80,0.00,,,0.63,weatherlink.com 1.10,2013-05-22 20:17:00,
2013-05-22 16:32:00,78.0,71.0,29.85,SW,225,0.0,1.0,79,0.00,,,0.63,weatherlink.com 1.10,2013-05-22 20:32:00,
2013-05-22 16:47:00,78.3,71.0,29.84,SSW,192,0.0,3.0,78,0.00,,,0.63,weatherlink.com 1.10,2013-05-22 20:47:00,
2013-05-22 17:02:00,78.7,72.0,29.83,SSW,192,0.0,2.0,81,0.00,,,0.63,weatherlink.com 1.10,2013-05-22 21:02:00,
2013-05-22 17:17:00,78.1,72.0,29.83,East,80,1.0,4.0,81,0.00,,,0.63,weatherlink.com 1.10,2013-05-22 21:17:00,
2013-05-22 17:32:00,78.4,71.0,29.83,WNW,287,1.0,5.0,77,0.00,,,0.63,weatherlink.com 1.10,2013-05-22 21:32:00,
2013-05-22 17:47:00,78.1,71.0,29.83,East,96,0.0,3.0,78,0.00,,,0.63,weatherlink.com 1.10,2013-05-22 21:47:00,
2013-05-22 18:02:00,77.6,71.0,29.82,NNE,12,2.0,5.0,79,0.00,,,0.63,weatherlink.com 1.10,2013-05-22 22:02:00,
2013-05-22 18:17:00,77.0,70.0,29.82,ENE,65,0.0,3.0,79,0.00,,,0.63,weatherlink.com 1.10,2013-05-22 22:17:00,
2013-05-22 18:32:00,76.5,71.0,29.83,West,269,0.0,2.0,82,0.00,,,0.63,weatherlink.com 1.10,2013-05-22 22:32:00,
2013-05-22 18:47:00,75.8,70.0,29.83,NNW,336,0.0,2.0,83,0.00,,,0.63,weatherlink.com 1.10,2013-05-22 22:47:00,
2013-05-22 19:02:00,74.7,70.0,29.84,ENE,59,0.0,3.0,86,0.00,,,0.63,weatherlink.com 1.10,2013-05-22 23:02:00,
2013-05-22 19:17:00,73.9,70.0,29.84,North,355,0.0,2.0,88,0.00,,,0.63,weatherlink.com 1.10,2013-05-22 23:17:00,
2013-05-22 19:32:00,72.9,69.0,29.85,NE,40,0.0,2.0,88,0.00,,,0.63,weatherlink.com 1.10,2013-05-22 23:32:00,
2013-05-22 19:47:00,72.0,69.0,29.85,NE,40,1.0,1.0,89,0.00,,,0.63,weatherlink.com 1.10,2013-05-22 23:47:00,
2013-05-22 20:02:00,71.3,68.0,29.85,NE,40,0.0,1.0,90,0.00,,,0.63,weatherlink.com 1.10,2013-05-23 00:02:00,
2013-05-22 20:17:00,70.4,67.0,29.85,NE,40,0.0,2.0,90,0.00,,,0.63,weatherlink.com 1.10,2013-05-23 00:17:00,
2013-05-22 20:32:00,70.0,67.0,29.85,NE,40,0.0,2.0,91,0.00,,,0.63,weatherlink.com 1.10,2013-05-23 00:32:00,
2013-05-22 20:47:00,69.8,67.0,29.85,NE,40,0.0,2.0,92,0.00,,,0.63,weatherlink.com 1.10,2013-05-23 00:47:00,
2013-05-22 21:02:00,69.6,67.0,29.86,NE,40,0.0,0.0,92,0.00,,,0.63,weatherlink.com 1.10,2013-05-23 01:02:00,
2013-05-22 21:17:00,69.4,67.0,29.86,NNE,33,0.0,2.0,93,0.00,,,0.63,weatherlink.com 1.10,2013-05-23 01:17:00,
2013-05-22 21:32:00,69.3,67.0,29.87,NE,49,0.0,1.0,93,0.00,,,0.63,weatherlink.com 1.10,2013-05-23 01:32:00,
2013-05-22 21:47:00,69.1,67.0,29.88,NE,49,0.0,2.0,93,0.00,,,0.63,weatherlink.com 1.10,2013-05-23 01:47:00,
2013-05-22 22:02:00,68.8,67.0,29.88,NE,47,0.0,2.0,93,0.00,,,0.63,weatherlink.com 1.10,2013-05-23 02:02:00,
2013-05-22 22:17:00,68.6,67.0,29.88,ESE,107,0.0,1.0,93,0.00,,,0.63,weatherlink.com 1.10,2013-05-23 02:17:00,
2013-05-22 22:32:00,68.2,66.0,29.88,ESE,107,0.0,1.0,93,0.00,,,0.63,weatherlink.com 1.10,2013-05-23 02:32:00,
2013-05-22 22:47:00,67.9,66.0,29.88,ESE,106,0.0,1.0,93,0.00,,,0.63,weatherlink.com 1.10,2013-05-23 02:47:00,
2013-05-22 23:02:00,67.4,65.0,29.88,ESE,106,0.0,0.0,93,0.00,,,0.63,weatherlink.com 1.10,2013-05-23 03:02:00,
2013-05-22 23:18:00,66.9,65.0,29.87,ESE,106,0.0,0.0,94,0.00,,,0.63,weatherlink.com 1.10,2013-05-23 03:18:00,
2013-05-22 23:33:00,66.4,65.0,29.87,ESE,107,0.0,0.0,94,0.00,,,0.63,weatherlink.com 1.10,2013-05-23 03:33:00,
2013-05-22 23:48:00,65.9,65.0,29.87,ESE,107,0.0,1.0,95,0.00,,,0.63,weatherlink.com 1.10,2013-05-23 03:48:00,